Regional Weather Roundup
Issued by NWS New Orleans/Baton Rouge, LA

Home | Current Version | Previous Version | Graphics & Text | Print | Product List | Glossary On
Versions: 1 2 3 4 5 6 7 8 9 10 11 12 13 14 15 16 17 18 19 20 21 22 23 24 25 26 27 28 29 30 31 32 33 34 35 36 37 38 39 40 41 42 43 44 45 46 47 48 49 50
762
ASUS44 KLIX 161401
RWRLIX
NEW ORLEANS REGIONAL WEATHER ROUNDUP
NATIONAL WEATHER SERVICE NEW ORLEANS LA
900 AM CDT WED APR 16 2014

NOTE: "FAIR" INDICATES FEW OR NO CLOUDS BELOW 12,000 FEET WITH NO
      SIGNIFICANT WEATHER AND/OR OBSTRUCTIONS TO VISIBILITY.
      SKY/WX - SKY CONDITION AND SIGNIFICANT WEATHER.
      TMP - AIR TEMPERATURE.     DP    - DEWPOINT TEMPERATURE.
      RH  - RELATIVE HUMIDITY.   PRES  - PRESSURE.
      HI  - HEAT INDEX.          WCI   - WIND CHILL INDEX.

*  THESE STATIONS ARE NOT NWS OR FAA STATIONS AND ARE NOT UNDER
   NWS QUALITY CONTROL.

LAZ038-040-048-061>063-065>067-069-161500-
SOUTHEAST LOUISIANA

CITY           SKY/WX    TMP DP  RH WIND       PRES   REMARKS
N.O. AUDUBON   NOT AVBL
N.O. INTL ARPT SUNNY     52  36  54 E12       30.24R
N.O. LAKEFRONT SUNNY     51  40  65 E14       30.24S
N.O. DOWNTOWN*   N/A     52  34  50 NE7       30.24R
SLIDELL        SUNNY     49  31  49 VRB7      30.25R
BATON ROUGE    SUNNY     47  34  60 E12       30.26S
BOOTHVILLE     SUNNY     55  40  56 NE10      30.22R
BELLE CHASSE   MOSUNNY   54  36  50 E14G20    30.23R
BOGALUSA*        N/A     48  32  53 E7        30.27S
GALLIANO*      NOT AVBL
NEW ROADS*     NOT AVBL
GONZALES*        N/A     48  37  65 NE6       30.25S
HAMMOND*       NOT AVBL
HOUMA*         SUNNY     52  37  58 NE12      30.23S
PORT FOURCHON* MOSUNNY   57  41  54 E13       30.22R

$$

MSZ070-080>082-161500-
SOUTHERN MISSISSIPPI

CITY           SKY/WX    TMP DP  RH WIND       PRES   REMARKS
MCCOMB         SUNNY     43  29  57 E9        30.26R
GULFPORT       SUNNY     50  32  50 E13       30.24R
BILOXI         SUNNY     45  34  65 E10       30.24S
PASCAGOULA     SUNNY     47  32  56 E13       30.23S

$$

COASTAL OBSERVATIONS
LAKE AND NEARSHORE STATIONS

STATION/POSITION TIME  TEMP    WIND        PRES    WAVE
                       AIR SEA DIR/SP/G            HT/PER
                 (UTC) (F)     (DEG/KT/KT) (MB)    (FT/S)
PASCAGOULA       1300   47      60/ 11/ 15 1023.1
WAVELAND YACHT   1300   46 60   80/ 10/ 13 1023.3
GRAND ISLE       1300   56 66  100/  8/ 13 1023.1
SOUTHWEST PASS   1300   59 57   80/ 12/ 16 1022.7
NEW CANAL        1300   49 61   80/ 10/ 14 1024.2
SHELL BEACH      1300   52 57   80/ 15/ 20 1023.2

OFFSHORE STATIONS

STATION/POSITION TIME  TEMP    WIND        PRES    WAVE
                       AIR SEA DIR/SP/G            HT/PER
                 (UTC) (F)     (DEG/KT/KT) (MB)    (FT/S)
64 S DAUPHIN ISL 1313   55 68   70/ 16/ 21 1022.5

$$




USA.gov is the U.S. government's official web portal to all federal, state and local government web resources and services.